FW7275 Weather Reports


Display with metric or nautical units.
time (UTC)temp
F
wind
direction
speed
MPH
gust
MPH
rain 1hr
in
rain 24hr
in
rain mn
in
humidity
%
barometer
mb
20221209013024 26 65 0.0 0.0 0.00 0.00 0.00 95
20221209012019 26 67 0.0 0.0 0.00 0.00 0.00 95
20221209011028 26 63 0.0 0.0 0.00 0.00 0.00 95
20221209010058 26 62 0.0 0.0 0.00 0.00 0.00 95
20221209005024 26 67 0.0 2.0 0.00 0.00 0.00 95
20221209003025 26 228 0.0 1.0 0.00 0.00 0.00 94
20221209002018 26 221 0.0 1.0 0.00 0.00 0.00 94
20221209000125 26 224 0.0 0.0 0.00 0.00 0.00 94
20221208235025 26 227 0.0 1.0 0.00 0.00 0.00 94
20221208234028 26 220 0.0 1.0 0.00 0.00 0.00 94
20221208233035 27 223 0.0 1.0 0.00 0.00 0.00 94
20221208231038 27 219 0.0 1.0 0.00 0.00 0.00 94
20221208230109 28 208 0.0 1.0 0.00 0.00 0.00 93
20221208225028 28 204 0.0 2.0 0.00 0.00 0.00 94
20221208224054 28 154 1.0 2.0 0.00 0.00 0.00 93
20221208223032 28 154 1.0 3.0 0.00 0.00 0.00 94
20221208222033 28 159 2.0 4.0 0.00 0.00 0.00 94
20221208215029 25 154 1.0 4.0 0.00 0.00 0.00 95
20221208214029 25 134 0.0 3.0 0.00 0.00 0.00 94
20221208212030 25 310 0.0 1.0 0.00 0.00 0.00 95
20221208211028 25 313 0.0 1.0 0.00 0.00 0.00 94
20221208205027 25 311 0.0 0.0 0.00 0.00 0.00 94
20221208203032 26 310 0.0 0.0 0.00 0.00 0.00 94
20221208202024 26 318 0.0 0.0 0.00 0.00 0.00 94
20221208201033 26 313 0.0 0.0 0.00 0.00 0.00 94
20221208193034 27 315 0.0 0.0 0.00 0.00 0.00 94
20221208192024 27 321 0.0 0.0 0.00 0.00 0.00 93
20221208191028 27 317 0.0 0.0 0.00 0.00 0.00 94
20221208185021 28 310 0.0 1.0 0.00 0.00 0.00 94
20221208184028 28 317 0.0 0.0 0.00 0.00 0.00 93
20221208182032 28 316 0.0 0.0 0.00 0.00 0.00 93
20221208181025 28 319 0.0 0.0 0.00 0.00 0.00 93
20221208180102 28 319 0.0 0.0 0.00 0.00 0.00 92
20221208175034 29 321 0.0 1.0 0.00 0.00 0.00 93
20221208174027 29 310 0.0 1.0 0.00 0.00 0.00 93
20221208172036 30 314 0.0 0.0 0.00 0.00 0.00 91
20221208171024 30 316 0.0 1.0 0.00 0.00 0.00 91
20221208170107 30 313 0.0 1.0 0.00 0.00 0.00 90
20221208165025 31 320 0.0 0.0 0.00 0.00 0.00 90
20221208164030 32 316 0.0 1.0 0.00 0.00 0.00 89
20221208163030 32 317 1.0 2.0 0.00 0.00 0.00 89
20221208160121 33 117 1.0 2.0 0.00 0.00 0.00 87
20221208155028 33 108 1.0 2.0 0.00 0.00 0.00 86
20221208152026 35 117 1.0 4.0 0.00 0.00 0.00 82
20221208150111 37 113 1.0 3.0 0.00 0.00 0.00 79
20221208145022 37 114 2.0 3.0 0.00 0.00 0.00 77
20221208143031 39 141 2.0 4.0 0.00 0.00 0.00 75
20221208142036 39 140 3.0 5.0 0.00 0.00 0.00 73
20221208140121 40 85 1.0 3.0 0.00 0.00 0.00 75
20221208135030 40 113 2.0 4.0 0.00 0.00 0.00 73
20221208133036 40 107 1.0 3.0 0.00 0.00 0.00 73
20221208132035 40 134 2.0 3.0 0.00 0.00 0.00 72
20221208131027 41 113 0.0 2.0 0.00 0.00 0.00 73
20221208125023 45 141 0.0 1.0 0.00 0.00 0.00 71
20221208124030 45 157 2.0 4.0 0.00 0.00 0.00 71
20221208123029 45 51 1.0 3.0 0.00 0.00 0.00 70
20221208122034 47 157 1.0 2.0 0.00 0.00 0.00 69
20221208121025 47 162 1.0 3.0 0.00 0.00 0.00 71
20221208115026 45 135 1.0 3.0 0.00 0.00 0.00 74
20221208114023 45 134 1.0 4.0 0.00 0.00 0.00 75
20221208113027 41 134 2.0 4.0 0.00 0.00 0.00 81
20221208111033 38 158 2.0 4.0 0.00 0.00 0.00 84
20221208105021 38 229 2.0 6.0 0.00 0.00 0.00 86
20221208104053 37 162 2.0 4.0 0.00 0.00 0.00 88
20221208103029 37 178 2.0 4.0 0.00 0.00 0.00 89
20221208102033 37 186 2.0 4.0 0.00 0.00 0.00 91
20221208101023 36 228 0.0 3.0 0.00 0.00 0.00 93
20221208100116 35 309 1.0 2.0 0.00 0.00 0.00 94
20221208093030 33 315 2.0 4.0 0.00 0.00 0.00 95
20221208092028 33 339 2.0 4.0 0.00 0.00 0.00 95
20221208091028 33 317 1.0 4.0 0.00 0.00 0.00 95
20221208090111 33 314 1.0 4.0 0.00 0.00 0.00 96
20221208085026 32 332 0.0 1.0 0.00 0.00 0.00 96
20221208084028 32 342 1.0 2.0 0.00 0.00 0.00 96
20221208083029 32 339 0.0 0.0 0.00 0.00 0.00 96
20221208082023 32 295 0.0 0.0 0.00 0.00 0.00 96
20221208081024 32 296 0.0 2.0 0.00 0.00 0.00 96
20221208080122 32 295 0.0 1.0 0.00 0.00 0.00 96
20221208075029 32 298 0.0 0.0 0.00 0.00 0.00 96
20221208074022 32 294 0.0 1.0 0.00 0.00 0.00 96
20221208072032 32 292 0.0 2.0 0.00 0.00 0.00 96
20221208070049 32 339 0.0 1.0 0.00 0.00 0.00 96
20221208065033 32 6 0.0 1.0 0.00 0.00 0.00 96
20221208064023 32 359 0.0 2.0 0.00 0.00 0.00 96
20221208063035 32 335 0.0 2.0 0.00 0.00 0.00 96
20221208061024 32 137 0.0 0.0 0.00 0.00 0.00 96
20221208060105 32 132 0.0 0.0 0.00 0.00 0.00 96
20221208055032 32 130 0.0 1.0 0.00 0.00 0.00 96
20221208054024 32 134 0.0 0.0 0.00 0.00 0.00 96
20221208053022 32 131 0.0 0.0 0.00 0.00 0.00 96
20221208052029 32 130 0.0 1.0 0.00 0.00 0.00 96
20221208051033 32 137 0.0 1.0 0.00 0.00 0.00 96
20221208045020 32 245 0.0 1.0 0.00 0.00 0.00 96
20221208044020 32 242 0.0 0.0 0.00 0.00 0.00 96
20221208043035 32 252 0.0 0.0 0.00 0.00 0.00 96
20221208042019 32 244 0.0 1.0 0.00 0.00 0.00 96
20221208041022 32 248 0.0 1.0 0.00 0.00 0.00 96
20221208040053 32 340 0.0 1.0 0.00 0.00 0.00 96
20221208035020 32 344 0.0 1.0 0.00 0.00 0.00 96
20221208034019 32 333 0.0 1.0 0.00 0.00 0.00 96
20221208033034 32 334 0.0 0.0 0.00 0.00 0.00 96
20221208032029 32 344 0.0 0.0 0.00 0.00 0.00 96
20221208031024 32 343 0.0 1.0 0.00 0.00 0.00 96
20221208030111 32 341 0.0 0.0 0.00 0.00 0.00 96
20221208024020 32 337 0.0 1.0 0.00 0.00 0.00 96
20221208023026 32 336 0.0 1.0 0.00 0.00 0.00 96
20221208022022 32 132 0.0 1.0 0.00 0.00 0.00 96
20221208021018 32 135 0.0 1.0 0.00 0.00 0.00 96
20221208015020 32 155 0.0 0.0 0.00 0.00 0.00 95